USA 40 R/B DEB, 23380

Orbit data source: Space-Track

USA 40 R/B DEB, 23380 is space debris originally from a launch on Tue, 08 Aug 1989 UTC launched from the Air Force Eastern Test Range (AFETR). Debris objects in space refer to the collection of defunct objects orbiting the Earth. Examples of debris include non-operational satellites, rocket bodies, and fragments generated from explosions, collisions, or faulty payload assembly.

Loading next visibility...
Identifier
23380, 1989-061BC
Orbit
Active
Country
Flag of USUS
Related business
Manufacturer
Unknown
Mission
Spacecraft
Bus & Motor
Unknown
Mass
Unknown
Launch date (UTC)
1989-08-08 (37 years ago)
Launch vehicle
Unknown
Launch site
Air Force Eastern Test Range (AFETR)
Object type
Payload
Rocket body
Debris
Shape & HBR
Unknown shape, 0.1 m
Radar Cross Section
Medium (>0.1 m² and <1 m²)

Expand to show TLE details & history
Last TLE update: 2 weeks ago

TLE from 2 weeks ago
0 USA 40 R/B DEB
1 23380U 89061BC  26159.90340963  .00001174  00000-0  84397-3 0  9994
2 23380  57.0846  29.4035 2934640 299.6270  34.3850  9.02251049 84900
Epoch: 2026-06-08T21:40Z
TLE epoch observation values (Epoch: 2026-06-08T21:40:54.592Z)
Latitude
-0.00008°
Longitude
166.89239°
Altitude
1,404.575 km
Speed
7.846 km/s
True Right ascension
01h 57m 36s
True Declination
0° 00' 00"
Sunlit
Object was in daylight at epoch
Visualization orbit readout
Latitude
Unknown
Longitude
Unknown
Altitude
Unknown
Speed
Unknown
Apparent Right ascension
Unknown
Apparent Declination
Unknown
Sunlit
N/A
Visualization observer readout
Local Sidereal Time
23:21:09
Azimuth
Unknown
Elevation
Unknown
Doppler factor
Unknown
Orbital elements
Apogee altitude
6,228.281 km
Perigee altitude
507.936 km
Semi-major axis
9,746.246 km
Eccentricity
0.29346
Inclination
57.0846°
RAAN
29.4035°
Arg. of periapsis
299.627°
True anomaly
60.4623°
Mean anomaly
34.385°
Eccentric anomaly
46.60226°
Mean motion
2.25573 °/min
Orbital period
159.59 mins
BSTAR
0.00084397
Loading maneuver chart data...
Computing Atmospheric mass density...
Loading historical data...
Loading historical data...
Loading historical data...
Loading historical data...
Loading historical data...
Loading historical data...
Loading historical data...

Documentation

Showing up to 5 results
|